{"data":{"norad_id":57194,"epoch":"2026-05-25T03:47:03.058656Z","epoch_age_seconds":58601,"freshness":"FRESH","line1":"1 57194U 23091AE  26145.15767429  .00008651  00000+0  34763-3 0  9995","line2":"2 57194  97.5077 207.9230 0011826 180.3400 179.7832 15.25120788160766","mean_motion":15.25120788,"eccentricity":0.0011826,"inclination_deg":97.5077,"raan_deg":207.923,"arg_perigee_deg":180.34,"mean_anomaly_deg":179.7832,"bstar":0.00034763,"rev_number":16076,"period_min":94.418751047802,"perigee_km":482.29999580457,"apogee_km":498.54551333608,"semimajor_km":6868.5597545703,"source":"CELESTRAK","updated_at":"2026-05-25T13:38:25.533048Z"}}